Regional Weather Roundup
Issued by NWS

Home | Current Version | Previous Version | Text Only | Print | Product List | Glossary On
Versions: 1 2 3 4 5 6 7 8 9 10 11 12 13 14 15 16 17 18 19 20 21 22 23 24 25 26 27 28
000
ASUS44 KLIX 210513
RWRLA
LOUISIANA WEATHER ROUNDUP
NATIONAL WEATHER SERVICE NEW ORLEANS LA
1100 PM CST MON FEB 20 2017

NOTE: "FAIR" INDICATES FEW OR NO CLOUDS BELOW 12,000 FEET WITH NO
      SIGNIFICANT WEATHER AND/OR OBSTRUCTIONS TO VISIBILITY.
      SKY/WX - SKY CONDITION AND SIGNIFICANT WEATHER.
      TMP - AIR TEMPERATURE.    DP   - DEWPOINT TEMPERATURE.
      RH  - RELATIVE HUMIDITY.  PRES - PRESSURE.
      HX  - HEAT INDEX.         WCI  - WIND CHILL INDEX.

*  THESE STATIONS ARE NOT NWS OR FAA STATIONS AND ARE NOT UNDER
   NWS QUALITY CONTROL.

LAZ040-048-061>063-065-066-069-210600-
SOUTHEAST LOUISIANA

CITY           SKY/WX    TMP DP  RH WIND       PRES   REMARKS
N.O. AUDUBON   NOT AVBL
N.O. INTL ARPT RAIN      61  60  97 W20G25    30.00R FOG
N.O. LAKEFRONT RAIN      63  61  93 W36G44    29.98R FOG
N.O. DOWNTOWN* LGT RAIN  64  60  87 NW14G21   30.01R
RESERVE*       DRIZZLE   63  61  94 NW8G18    30.00F
SLIDELL        CLOUDY    71  67  87 SE16G25   29.93F
BATON ROUGE    LGT RAIN  61  59  93 NW7       30.00F
BOOTHVILLE     CLOUDY    70  69  97 SE10      29.97F
BELLE CHASSE   CLOUDY    72  70  93 W14G20    29.98R
BOGALUSA*      CLOUDY    70  65  82 SE12G26   29.95F
GALLIANO*      LGT RAIN  62  58  86 NW23G29   29.99R
NEW ROADS*     LGT RAIN  59  58  97 N5        30.00F
GONZALES*      RAIN      60  59  96 NW5       30.01S
HAMMOND*       LGT RAIN  61  57  88 NW10      30.00R
HOUMA*         CLOUDY    61  59  94 NW13G22   30.01R
PORT FOURCHON* CLOUDY    64  61  88 NW26G37   30.00R

$$

LAZ041-044-053-054-210600-
SOUTHWEST LOUISIANA

CITY           SKY/WX    TMP DP  RH WIND       PRES   REMARKS
LAKE CHARLES   MOCLDY    60  60 100 SW6       30.04R
LAFAYETTE      LGT RAIN  62  60  93 VRB3      29.97F
PATTERSON      LGT RAIN  60  59  96 NW3       30.03S
SALT POINT       N/A     61  59  93 N3        30.01S
NEW IBERIA     RAIN      60  57  89 E7        29.99F
CHENAULT AIRPK CLOUDY    60  59  97 SW8       30.03R

$$

LAZ027-028-210600-
CENTRAL LOUISIANA

CITY           SKY/WX    TMP DP  RH WIND       PRES   REMARKS
FORT POLK      LGT RAIN  59  58  98 S6        29.97R
ALEXANDRIA INT LGT RAIN  59  58  96 E6        29.93F
ALEXANDRIA       N/A    N/A N/A N/A MISG      29.95F

$$

LAZ001-002-210600-
NORTHWEST LOUISIANA

CITY           SKY/WX    TMP DP  RH WIND       PRES   REMARKS
SHREVEPORT     CLOUDY    59  59 100 SW6       29.97R
BARKSDALE AFB  CLOUDY    59  59 100 W5        29.95R
DTN SHREVEPORT CLOUDY    60  58  92 W3        29.97R

$$

LAZ014-016-210600-
NORTHEAST LOUISIANA

CITY           SKY/WX    TMP DP  RH WIND       PRES   REMARKS
MONROE         RAIN      59  58  96 CALM      29.97F
TALLULAH       HVY RAIN  59  58  96 NW7       29.97R FOG

$$





USA.gov is the U.S. government's official web portal to all federal, state and local government web resources and services.